CZ-6A DEB, 54557

Orbit data source: Space-Track

CZ-6A DEB, 54557 is space debris in SSO originally from a launch on Fri, 11 Nov 2022 UTC launched from the Taiyaun Space Center, China (TSC). Debris objects in space refer to the collection of defunct objects orbiting the Earth. Examples of debris include non-operational satellites, rocket bodies, and fragments generated from explosions, collisions, or faulty payload assembly.

Loading next visibility...
Identifier
54557, 2022-151LH
Orbit
SSO
Country
Flag of CNCN / PRC
Related business
Manufacturer
SAST
Mission
Spacecraft
Bus & Motor
Unknown
Mass
Unknown
Launch date (UTC)
2022-11-11 (4 years ago)
Launch vehicle
Unknown
Launch site
Taiyaun Space Center, China (TSC)
Object type
Payload
Rocket body
Debris
Shape & HBR
Unknown shape, 0.3 m
Radar Cross Section
Medium (>0.1 m² and <1 m²)

Expand to show TLE details & history
Last TLE update: 20 hours ago

TLE from 20 hours ago
0 CZ-6A DEB
1 54557U 22151LH  26235.57901560  .00000731  00000-0  18767-3 0  9991
2 54557  98.5738 289.0596 0133031  92.6662 268.9766 14.48183246199249
Epoch: 2026-08-23T13:53Z
TLE epoch observation values (Epoch: 2026-08-23T13:53:46.947Z)
Latitude
-0.00004°
Longitude
108.74094°
Altitude
737.494 km
Speed
7.485 km/s
True Right ascension
19h 16m 14s
True Declination
0° 00' 00"
Sunlit
Object was in full shadow at epoch
Visualization orbit readout
Latitude
Unknown
Longitude
Unknown
Altitude
Unknown
Speed
Unknown
Apparent Right ascension
Unknown
Apparent Declination
Unknown
Sunlit
N/A
Visualization observer readout
Local Sidereal Time
00:45:49
Azimuth
Unknown
Elevation
Unknown
Doppler factor
Unknown
Orbital elements
Apogee altitude
823.245 km
Perigee altitude
634.159 km
Semi-major axis
7,106.839 km
Eccentricity
0.0133
Inclination
98.5738°
RAAN
289.0596°
Arg. of periapsis
92.6662°
True anomaly
267.45305°
Mean anomaly
268.9766°
Eccentric anomaly
268.21476°
Mean motion
3.62267 °/min
Orbital period
99.37 mins
BSTAR
0.00018767
Loading maneuver chart data...
Computing Atmospheric mass density...
Loading historical data...
Loading historical data...
Loading historical data...
Loading historical data...
Loading historical data...
Loading historical data...
Loading historical data...

Documentation

Showing up to 5 results
|